SL-16 R/B, 22285

Orbit data source: Space-Track

SL-16 R/B, 22285 is space debris in LEO originally from a launch on Fri, 25 Dec 1992 UTC launched from the Tyuratam Missile And Space Complex (TTMTR). Debris objects in space refer to the collection of defunct objects orbiting the Earth. Examples of debris include non-operational satellites, rocket bodies, and fragments generated from explosions, collisions, or faulty payload assembly.

Loading next visibility...
Identifier
22285, 1992-093B
Orbit
LEO
Country
Flag of CISCIS
Related business
Manufacturer
Yuzhnoe
Mission
Spacecraft
Bus & Motor
11S772, Unknown motor
Mass
9,000 kg wet, 9,000 kg dry
Launch date (UTC)
1992-12-25 (33 years ago)
Launch vehicle
Unknown
Launch site
Tyuratam Missile And Space Complex (TTMTR)
Object type
Payload
Rocket body
Debris
Shape & HBR
Unknown shape, 3.7 m
Radar Cross Section
Large (>1 m²)

Expand to show TLE details & history
Last TLE update: 22 hours ago

TLE from 22 hours ago
0 SL-16 R/B
1 22285U 92093B   25306.32011060 -.00000018  00000-0  15068-4 0  9995
2 22285  71.0201 271.6419 0003433 174.2951 185.8212 14.15417759695139
Epoch: 2025-11-02T07:40Z
TLE epoch observation values (Epoch: 2025-11-02T07:40:57.555Z)
Latitude
-0.00001°
Longitude
114.56455°
Altitude
845.759 km
Speed
7.429 km/s
True Right ascension
18h 06m 34s
True Declination
0° 00' 00"
Sunlit
Object was in daylight at epoch
Visualization orbit readout
Latitude
Unknown
Longitude
Unknown
Altitude
Unknown
Speed
Unknown
Apparent Right ascension
Unknown
Apparent Declination
Unknown
Sunlit
N/A
Visualization observer readout
Local Sidereal Time
01:29:06
Azimuth
Unknown
Elevation
Unknown
Doppler factor
Unknown
Orbital elements
Apogee altitude
841.291 km
Perigee altitude
836.336 km
Semi-major axis
7,216.951 km
Eccentricity
0.00034
Inclination
71.0201°
RAAN
271.6419°
Arg. of periapsis
174.2951°
True anomaly
185.81721°
Mean anomaly
185.8212°
Eccentric anomaly
185.81921°
Mean motion
3.54008 °/min
Orbital period
101.69 mins
BSTAR
0.000015068
Loading maneuver chart data...
Computing Atmospheric mass density...
Loading historical data...
Loading historical data...
Loading historical data...
Loading historical data...
Loading historical data...
Loading historical data...
Loading historical data...

Documentation

Showing up to 5 results
|